Deering, AK

7:14 PM AKST on February 23, 2017 (GMT -0900)
Deering (New)

Weather History for PADE - January, 2013

Change the Weather History Date:

Friday, January 18, 2013

  Actual Average (PAOT) Record (PAOT)
Temperature  
Mean Temperature -25 °F -  
Max Temperature -23 °F 6 °F 37 °F (1963)
Min Temperature -27 °F -6 °F -55 °F (1934)
Degree Days  
Heating Degree Days 90    
Moisture  
Dew Point -32 °F    
Average Humidity 76    
Maximum Humidity 81    
Minimum Humidity 67    
Precipitation  
Precipitation 0.00 in - - ()
Sea Level Pressure  
Sea Level Pressure 30.57 in    
Wind  
Wind Speed 5 mph (SW)    
Max Wind Speed 9 mph    
Max Gust Speed -    
Visibility 10 miles    
Events      
Averages and records for this station are not official NWS values.
T = Trace of Precipitation, MM = Missing Value Source: NWS Daily Summary

Daily Weather History Graph

Daily Weather History Graph

Search for Another Location

Airport or City:

Trip Planner

Search our weather history database for the weather conditions in past years. The results will help you decide how hot, cold, wet, or windy it might be!

Date:

Astronomy

Jan. 18, 2013 Rise Set
Actual Time 11:33 AM AKST 4:30 PM AKST
Civil Twilight 10:18 AM AKST 5:45 PM AKST
Nautical Twilight 9:09 AM AKST 6:54 PM AKST
Astronomical Twilight 8:07 AM AKST 7:56 PM AKST
Moon 11:35 AM AKST (1/18) 3:08 AM AKST (1/18)
Length of Visible Light 7h 27m
Length of Day
4h 56m
Waxing Crescent, 49% of the Moon is Illuminated
Jan 18
Waxing Crescent
Jan 18
First Quarter
Jan 26
Full
Feb 3
Last Quarter
Feb 9
New

Hourly Weather History & Observations

Time (AKST) Temp. Windchill Dew Point Humidity Pressure Visibility Wind Dir Wind Speed Gust Speed Precip Events Conditions
12:53 AM -27.0 °F -43.7 °F -33.0 °F 73% 30.50 in 10.0 mi SW 5.8 mph - N/A   Clear
1:53 AM -26.0 °F -37.5 °F -29.9 °F 81% 30.51 in 10.0 mi SW 3.5 mph - N/A   Clear
2:53 AM -27.0 °F -48.5 °F -33.0 °F 73% 30.52 in 10.0 mi SSW 9.2 mph - N/A   Clear
3:53 AM -24.0 °F -41.8 °F -29.0 °F 77% 30.53 in 10.0 mi SW 6.9 mph - N/A   Clear
4:53 AM -26.0 °F -37.5 °F -31.0 °F 77% 30.55 in 10.0 mi SW 3.5 mph - N/A   Clear
5:53 AM -27.9 °F -39.8 °F -33.0 °F 77% 30.56 in 10.0 mi SW 3.5 mph - N/A   Clear
6:53 AM -27.0 °F -41.5 °F -32.1 °F 77% 30.56 in 10.0 mi SW 4.6 mph - N/A   Clear
7:53 AM -27.9 °F -49.6 °F -33.0 °F 77% 30.58 in 10.0 mi SSW 9.2 mph - N/A   Clear
8:55 AM -25.6 °F -39.8 °F -31.0 °F 76% 30.59 in 10.0 mi SSW 4.6 mph - N/A   Clear
9:53 AM -26.0 °F -40.2 °F -32.1 °F 73% 30.59 in 10.0 mi SW 4.6 mph - N/A   Clear
10:53 AM -26.0 °F -44.2 °F -29.9 °F 81% 30.60 in 10.0 mi SSW 6.9 mph - N/A   Clear
11:53 AM -24.0 °F -37.9 °F -29.9 °F 74% 30.61 in 10.0 mi SW 4.6 mph - N/A   Clear
12:53 PM -24.0 °F -37.9 °F -29.0 °F 77% 30.61 in 9.0 mi SW 4.6 mph - N/A   Clear
1:53 PM -23.1 °F - -31.0 °F 67% 30.61 in 9.0 mi Calm Calm - N/A   Clear
2:53 PM -24.0 °F - -29.9 °F 74% 30.61 in 10.0 mi Calm Calm - N/A   Clear
4:53 PM -24.0 °F -35.2 °F -29.9 °F 74% 30.59 in 10.0 mi SW 3.5 mph - N/A   Clear
5:53 PM -27.9 °F -42.5 °F -34.1 °F 73% 30.59 in 10.0 mi SW 4.6 mph - N/A   Clear
6:53 PM -27.0 °F -38.7 °F -32.1 °F 77% 30.59 in 10.0 mi SW 3.5 mph - N/A   Clear
7:53 PM -27.0 °F -45.5 °F -32.1 °F 77% 30.58 in 10.0 mi SSW 6.9 mph - N/A   Clear
8:53 PM -27.9 °F - -32.1 °F 81% 30.58 in 10.0 mi Calm Calm - N/A   Clear
9:53 PM -27.0 °F - -32.1 °F 77% 30.56 in 10.0 mi Calm Calm - N/A   Clear
10:53 PM -27.0 °F -45.5 °F -33.0 °F 73% 30.56 in 10.0 mi SSW 6.9 mph - N/A   Clear
11:53 PM -27.0 °F -38.7 °F -33.0 °F 73% 30.55 in 10.0 mi SW 3.5 mph - N/A   Clear